OpenBCM V1.13 (Linux)

Packet Radio Mailbox

DB0FHN

[JN59NK Nuernberg]

 Login: GUEST





  
LU9DCE > KEP      05.05.19 20:34l 245 Lines 12043 Bytes #999 (0) @ WW
BID : 23554_LU9DCE
Read: DF7EAV DK3UZ GUEST
Subj: TLE 05 05
Path: DB0FHN<DB0BLO<DB0ERF<DB0RES<IR2UBX<IW2OHX<UA6ADV<LU4ECL<VE2PKT<N3HYM<
      GB7YEW<VA3TOK<LU9DCE
Sent: 190505/1801Z @:LU9DCE.TOR.BA.ARG.SOAM #:23554 LinBPQ6.0.18

            __    _  _  ___  ____   ___  ____    ____  ____  ____
           (  )  / )( \/ _ \(    \ / __)(  __)  (  _ \(  _ \/ ___)
           / (_/\) \/ (\__  )) D (( (__  ) _)    ) _ ( ) _ (\___ \
           \____/\____/(___/(____/ \___)(____)  (____/(____/(____/
               ESTACION DE PACKET RADIO - BUENOS AIRES (GF05OM)
                   BOLETINES INFORMATIVOS PROGRAMADOS (BIP)
              28.125 USB @ 300 BAUD --- HELLOCODELINUX@GMAIL.COM

+----------------------------------------------------------------------------+
OSCAR 7
1  7530U 74089B   19125.01206840 -.00000047  00000-0 -13246-4 0  9995
2  7530 101.7401  93.1387 0012590  73.6302 328.1465 12.53637913 34927
OSCAR 11 (UoSAT 2)
1 14781U 84021B   19125.50834287  .00000074  00000-0  15186-4 0  9997
2 14781  97.6147 152.3073 0010047 103.1156 257.1180 14.83080935892214
OSCAR 19 (LUSAT)
1 20442U 90005G   19124.84004455 -.00000022 +00000-0 +83930-5 0  9996
2 20442 098.6456 066.9235 0010644 283.5203 076.4794 14.32923615529897
EYESAT A
1 22825U 93061C   19124.93111697 -.00000020 +00000-0 +10220-4 0  9994
2 22825 098.9014 112.5522 0009288 125.0275 235.1780 14.30057154335286
ITAMSAT
1 22826U 93061D   19125.50281733 -.00000009  00000-0  14442-4 0  9995
2 22826  98.8955 113.1338 0009940 113.7919 246.4306 14.30390673335832
RADIO ROSTO
1 23439U 94085A   19124.90479482 -.00000019 +00000-0 +65597-3 0  9993
2 23439 064.8156 188.5521 0146984 121.9345 239.5967 11.27567709002840
JAS 2
1 24278U 96046B   19125.47940138 -.00000057  00000-0 -20825-4 0  9997
2 24278  98.5308 284.9002 0350229 354.8552   4.9027 13.53090547121829
TECHSAT 1B
1 25397U 98043D   19124.85052618 -.00000023  00000-0  91405-5 0  9992
2 25397  98.6860  65.5459 0001859 129.8734 230.2608 14.23664433 81495
ISS (ZARYA)
1 25544U 98067A   19125.49588383  .00001299  00000-0  28187-4 0  9997
2 25544  51.6414 213.3733 0000860 298.1355 189.8462 15.52632326168628
PCSAT
1 26931U 01043C   19124.40590857 -.00000024  00000-0  22693-4 0  9997
2 26931  67.0495 120.5389 0006194 279.5755  80.4646 14.30540321918494
SAUDISAT 1C
1 27607U 02058C   19124.61184737 +.00000015 +00000-0 +22990-4 0  9993
2 27607 064.5545 187.4220 0082336 265.1274 094.0424 14.75541200880251
CUTE-1
1 27844U 03031E   19124.90754784 +.00000041 +00000-0 +38111-4 0  9996
2 27844 098.6853 133.7882 0010360 154.5468 205.6222 14.22173658821886
CUBESAT XI 4
1 27848U 03031J   19124.95731364 +.00000031 +00000-0 +33963-4 0  9993
2 27848 098.6931 134.3274 0010019 165.1354 195.0120 14.21769285821753
MOZHAYETS 4
1 27939U 03042A   19125.43387726  .00000077  00000-0  22374-4 0  9993
2 27939  98.0320 262.1302 0012485 202.0510 158.0168 14.66774075834056
CUBESAT XI 5
1 28895U 05043F   19124.93591417 +.00000104 +00000-0 +28707-4 0  9993
2 28895 097.9521 269.2187 0017970 130.2915 229.9862 14.63655062720709
CUTE-1.7+APD II
1 32785U 08021C   19125.17772333  .00000218  00000-0  29155-4 0  9994
2 32785  97.5496 126.9929 0014401  54.9259 305.3307 14.88288904597069
DELFI C3
1 32789U 08021G   19125.12789609  .00000916  00000-0  65484-4 0  9997
2 32789  97.4687 176.1305 0010436 278.4222  81.5822 15.06846514600255
SEEDS
1 32791U 08021J   19125.53942040  .00000205  00000-0  26161-4 0  9995
2 32791  97.5291 133.2630 0014180  31.4932 328.7133 14.90789859597537
YUBELEINY
1 32953U 08025A   19125.45883947  .00000020  00000-0  75656-4 0  9998
2 32953  82.5038 172.2729 0018395 222.8749 137.0897 12.43089059496814
PRISM (HITOMI)
1 33493U 09002B   19124.73387881  .00000768  00000-0  72881-4 0  9996
2 33493  98.1232  43.9837 0014646 338.7446  21.3164 14.96607182558424
KKS-1 (KISEKI)
1 33499U 09002H   19124.91540604 +.00000105 +00000-0 +23561-4 0  9992
2 33499 098.3531 322.1878 0009066 357.6117 002.5046 14.75429140552197
SWISSCUBE
1 35932U 09051B   19124.93643897 +.00000118 +00000-0 +37691-4 0  9993
2 35932 098.5833 289.6106 0006548 308.4303 051.6305 14.56270072510220
BEESAT
1 35933U 09051C   19124.94218212 +.00000092 +00000-0 +31680-4 0  9997
2 35933 098.5863 291.3531 0004981 326.2274 033.8605 14.56361084510296
ITUPSAT 1
1 35935U 09051E   19125.18031448  .00000083  00000-0  30281-4 0  9996
2 35935  98.5974 291.8393 0007219 318.6532  41.4117 14.55523114510163
XIWANG-1 (HOPE-1)
1 36122U 09072B   19125.19701120 -.00000017  00000-0  65064-4 0  9995
2 36122 100.0722 129.6691 0008263  88.6723 271.5365 13.16349562451026
TISAT 1
1 36799U 10035E   19124.98956664  .00000262  00000-0  32610-4 0  9999
2 36799  98.1494 275.6762 0011274 227.9387 132.0872 14.91068993478102
JUGNU
1 37839U 11058B   19124.68339043 +.00000309 +00000-0 +22885-4 0  9999
2 37839 019.9608 247.7139 0018784 190.7021 302.2353 14.12648959390779
SRMSAT
1 37841U 11058D   19124.65579955 +.00000311 +00000-0 +25938-4 0  9992
2 37841 019.9728 303.7246 0011784 061.8993 009.4416 14.10630556390235
M-CUBED/EXP-1 PRIME
1 37855U 11061F   19124.86809023  .00001150  00000-0  65596-4 0  9992
2 37855 101.7209 357.4497 0173786 209.6436 149.4838 15.05307675410035
HORYU 2
1 38340U 12025D   19125.23128107  .00000166  00000-0  32248-4 0  9996
2 38340  98.3336 162.4770 0010121 264.8956  95.1098 14.75700412374607
STRAND 1
1 39090U 13009E   19124.81519741  .00000044  00000-0  30785-4 0  9992
2 39090  98.4930 331.5164 0010298  65.5014 294.7244 14.35081157323959
SOMP
1 39134U 13015E   19124.55716000  .00001045  00000-0  57339-4 0  9992
2 39134  64.8623 166.6531 0026783 309.8918  49.9854 15.20035572333731
BEESAT 3
1 39135U 13015F   19124.53125218  .00000775  00000-0  48412-4 0  9997
2 39135  64.8660 184.4081 0014444 322.8008  37.2116 15.17361211333398
BEESAT 2
1 39136U 13015G   19125.54045327  .00000705  00000-0  45616-4 0  9998
2 39136  64.8690 184.8388 0015535 311.9300  48.0500 15.16807494333475
CUBEBUG 1
1 39153U 13018D   19125.22585621  .00000165  00000-0  28523-4 0  9999
2 39153  97.9753 223.6088 0016481 347.5474  12.5329 14.80548612325232
ZACUBE
1 39417U 13066B   19125.18379301  .00000198  00000-0  31258-4 0  9991
2 39417  97.5650 141.1820 0059032 178.3936 181.7478 14.81093106294454
TRITON 1
1 39427U 13066M   19125.55431376  .00000161  00000-0  34016-4 0  9999
2 39427  97.6730 105.6680 0112636 307.3378  51.7606 14.67820041291869
GOMX 1
1 39430U 13066Q   19125.46396227  .00000220  00000-0  48631-4 0  9992
2 39430  97.7420  84.9403 0152337  34.1209 326.9664 14.59231081290155
HUMSAT D
1 39433U 13066T   19124.88614089 +.00000599 +00000-0 +63645-4 0  9990
2 39433 097.5582 174.2115 0032442 090.5566 269.9371 14.92150714295217
CUBEBUG 2
1 39440U 13066AA  19125.54575234  .00000174  00000-0  31378-4 0  9997
2 39440  97.6021 126.5911 0079111 227.6381 131.8113 14.75832829293461
FUNCUBE 1
1 39444U 13066AE  19125.54648987  .00000228  00000-0  34291-4 0  9994
2 39444  97.5633 143.4260 0058376 171.2495 188.9751 14.81906990293399
UWE-3
1 39446U 13066AG  19125.01641089  .00000181  00000-0  30775-4 0  9995
2 39446  97.5824 133.0603 0069376 204.6760 155.1128 14.78366558292666
SPROUT
1 39770U 14029E   19125.22890773  .00000573  00000-0  69694-4 0  9991
2 39770  97.8799 228.8231 0007781 228.2445 131.8117 14.87281176268220
UNISAT 6
1 40012U 14033C   19124.87122643  .00000173  00000-0  33288-4 0  9997
2 40012  97.7640 353.3978 0056988 241.8922 117.6520 14.73958199262080
DUCHIFAT 1
1 40021U 14033M   19124.76973574 +.00000236 +00000-0 +30012-4 0  9994
2 40021 097.9237 049.2176 0012366 191.9179 168.1748 14.90590694264857
QB50P1
1 40025U 14033R   19125.54743554  .00000207  00000-0  28022-4 0  9994
2 40025  97.9067  45.3019 0011814 198.4723 161.6067 14.88915264264751
CHUBUSAT 1
1 40300U 14070C   19125.27596979  .00000579  00000-0  28260-4 0  9994
2 40300  97.3289 200.5769 0019030 208.9006 197.4168 15.22019362249264
NUDT-PHONESAT
1 40900U 15049B   19125.49386846  .00002114  00000-0  93871-4 0  9998
2 40900  97.4393 135.2683 0012232 349.6957 163.1075 15.22601011200937
ZDPS 2A
1 40901U 15049C   19125.51343389  .00000723  00000-0  39197-4 0  9992
2 40901  97.4602 131.9777 0013595   5.2460 146.1403 15.17644261200535
ZDPS 2B
1 40902U 15049D   19125.46766163  .00001365  00000-0  71470-4 0  9999
2 40902  97.4542 129.4956 0013784   2.3280 152.6182 15.17433709200504
XW-2A
1 40903U 15049E   19125.45365090  .00001908  00000-0  47220-4 0  9992
2 40903  97.3429 167.9598 0012205 311.6602 161.2291 15.41674118203438
KAITUO 1A
1 40904U 15049F   19125.43270817  .00000314  00000-0  20158-4 0  9994
2 40904  97.4667 128.2010 0015075   8.3924 128.0252 15.15318500200298
OBJECT G
1 40905U 15049G   19125.41012291  .00000578  00000-0  35114-4 0  9993
2 40905  97.4701 125.7879 0015927   2.6025 103.3635 15.14252491200171
XW-2C
1 40906U 15049H   19125.44677588  .00000399  00000-0  24454-4 0  9999
2 40906  97.4670 128.2610 0014871   0.0681 159.4135 15.15611878200294
XW-2D
1 40907U 15049J   19125.35413731  .00000649  00000-0  37419-4 0  9991
2 40907  97.4650 127.8474 0014352 358.2960 108.5820 15.15795958200296
LILACSAT 2
1 40908U 15049K   19125.45150316  .00000100  00000-0  91429-5 0  9994
2 40908  97.4777 126.8648 0016068   2.5307 162.7919 15.13763036200111
XW-2F
1 40910U 15049M   19125.49745564  .00001009  00000-0  54069-4 0  9993
2 40910  97.4624 129.8850 0014366 351.3144 159.6935 15.17197495200315
XW-2B
1 40911U 15049N   19125.38962385  .00000659  00000-0  38010-4 0  9992
2 40911  97.4678 128.5196 0014163 358.5340 134.7496 15.15728415200198
KAITUO 1B
1 40912U 15049P   19125.46520132  .00001162  00000-0  57893-4 0  9992
2 40912  97.4505 133.3950 0014162 333.4482 185.6827 15.19496825200596
TIANWANG 1C (TW-1C)
1 40926U 15051B   19125.39073411  .00012369  00000-0  18721-3 0  9992
2 40926  97.1410 171.6382 0009348 163.0022 320.5434 15.54761011203277
